Regional Weather Roundup
Issued by NWS Green Bay, WI

Home | Current Version | Previous Version | Graphics & Text | Print | Product List | Glossary Off
Versions: 1 2 3 4 5 6 7 8 9 10 11 12 13 14 15 16 17 18 19 20 21 22 23 24 25 26 27 28 29 30 31 32 33 34 35 36 37 38 39 40 41 42 43 44 45 46 47 48 49 50

000
ASUS43 KGRB 012100
RWRGRB

NORTH-CENTRAL AND NORTHEAST WISCONSIN REGIONAL WEATHER ROUNDUP
NATIONAL WEATHER SERVICE GREEN BAY WI
400 PM CDT SAT AUG 01 2015

WIZ005-009-010>012-018-019-012200-
NORTH CENTRAL WISCONSIN

CITY           SKY/WX    TMP DP  RH WIND       PRES   REMARKS
IRONWOOD       SUNNY     75  52  43 NW10      29.82F
MANITOWISH WTR NOT AVBL
ARBOR VITAE    NOT AVBL
EAGLE RIVER    NOT AVBL
LAND O LAKES   NOT AVBL
RHINELANDER    PTSUNNY   79  50  36 W15       29.90F
PHILLIPS       MOSUNNY   77  53  42 W8G21     29.89F
ANTIGO         NOT AVBL
TOMAHAWK       NOT AVBL
MERRILL        NOT AVBL
$$

WIZ013-073-012200-
NORTHEAST WISCONSIN

CITY           SKY/WX    TMP DP  RH WIND       PRES   REMARKS
IRON MOUNTAIN  MOSUNNY   79  51  37 NW10G23   29.84F
MARINETTE      MOSUNNY   81  50  34 W8        29.83F
$$

WIZ017-030-035>037-045-012200-
CENTRAL WISCONSIN

CITY           SKY/WX    TMP DP  RH WIND       PRES   REMARKS
MEDFORD        NOT AVBL
WAUSAU         PTSUNNY   82  51  34 W15G22    29.89F
MOSINEE        NOT AVBL
MARSHFIELD     SUNNY     81  51  35 W14G21    29.92S
WISC RAPIDS    SUNNY     84  48  28 NW14G20   29.92F
STEVENS POINT  NOT AVBL
WAUPACA        NOT AVBL
SHAWANO        NOT AVBL
CLINTONVILLE   MOSUNNY   81  43  26 W13       29.88F
$$

WIZ038-039-048-051-012200-
FOX VALLEY

CITY           SKY/WX    TMP DP  RH WIND       PRES   REMARKS
NWS GREEN BAY  MOSUNNY   83  51  33 W10       29.88S
APPLETON       MOSUNNY   81  45  28 NW14G23   29.90F
OSHKOSH        MOSUNNY   83  52  34 NW12      29.89F
FOND DU LAC    MOSUNNY   83  55  38 NW9       29.90F
$$

WIZ022-050-052-012200-
EAST CENTRAL WISCONSIN

CITY           SKY/WX    TMP DP  RH WIND       PRES   REMARKS
STURGEON BAY   SUNNY     81  52  36 W12G17    29.88F
MANITOWOC      NOT AVBL
SHEBOYGAN      MOSUNNY   82  53  36 W9        29.89F
$$

LMZ563-521-522-541>543-012200-
LAKESHORE

STATION/POSITION TIME  TEMP    WIND        PRES    VSBY  WAVE
                       AIR SEA DIR/SP/G                  HT/PER
                 (UTC) (F)     (DEG/KT/KT) (MB)    (MI)  (FT/S)
SHEBOYGAN LKSHOR 2000   80     290/ 10/ 13 1012.4F
KEWAUNEE LKSHORE 2000   80     280/  9/ 12 1011.2F
ALGOMA MARINA    2012          290/ 11/ 13   N/A
NORTHPORT PIER   2000   78     240/  5/ 15 1010.5F
N MID LAKE BUOY  1950   69 68  210/ 12/ 14 1010.4F         1/ 3
CHAMBERS ISLAND  2000   78     250/  4/ 10 1010.5F
MENOMINEE LKSHOR 2000   79     270/  9/ 13 1011.6F
$$


USA.gov is the U.S. government's official web portal to all federal, state and local government web resources and services.